Weather History for Carroll, IA

Change the Weather History Date:

Thursday, November 8, 2012

  Actual Average Record
Temperature  
Mean Temperature 47 °F -  
Max Temperature 64 °F 47 °F 82 °F (1999)
Min Temperature 30 °F 26 °F 2 °F (1991)
Degree Days  
Heating Degree Days 18    
Moisture  
Dew Point 35 °F    
Average Humidity 70    
Maximum Humidity 100    
Minimum Humidity 37    
Precipitation  
Precipitation 0.00 in - - ()
Sea Level Pressure  
Sea Level Pressure 29.95 in    
Wind  
Wind Speed 10 mph (South)    
Max Wind Speed 21 mph    
Max Gust Speed 26 mph    
Visibility 10 miles    
Events      
Averages and records for this station are not official NWS values.
T = Trace of Precipitation, MM = Missing Value Source: NWS Daily Summary

Daily Weather History Graph

Daily Weather History Graph

Search for Another Location

Airport:

Trip Planner

Search our weather history database for the weather conditions in past years. The results will help you decide how hot, cold, wet, or windy it might be!

Date:

Astronomy

Nov. 08, 2012 Rise Set
Actual Time 7:01 AM CST 5:04 PM CST
Civil Twilight 6:31 AM CST 5:33 PM CST
Nautical Twilight 5:58 AM CST 6:07 PM CST
Astronomical Twilight 5:25 AM CST 6:39 PM CST
Moon 12:51 AM CST (11/8) 1:50 PM CST (11/8)
Length of Visible Light 11h 02m
Length of Day
10h 03m
Waning Crescent, 32% of the Moon is Illuminated
Nov 8
Waning Crescent
Nov 13
New
Nov 20
First Quarter
Nov 28
Full
Dec 6
Last Quarter

Hourly Weather History & Observations

Time (CST) Temp. Windchill Dew Point Humidity Pressure Visibility Wind Dir Wind Speed Gust Speed Precip Events Conditions
12:15 AM 32.0 °F 26.4 °F 30.2 °F 93% 30.06 in 10.0 mi SE 5.8 mph - N/A   Clear
12:35 AM 32.0 °F 24.8 °F 30.2 °F 93% 30.05 in 10.0 mi SE 8.1 mph - N/A   Clear
12:55 AM 30.2 °F 23.4 °F 30.2 °F 100% 30.05 in 10.0 mi SSE 6.9 mph - N/A   Clear
1:15 AM 32.0 °F 24.2 °F 30.2 °F 93% 30.04 in 10.0 mi SSE 9.2 mph - N/A   Clear
1:35 AM 32.0 °F 24.2 °F 30.2 °F 93% 30.03 in 10.0 mi SSE 9.2 mph - N/A   Clear
1:55 AM 32.0 °F 23.0 °F 30.2 °F 93% 30.02 in 10.0 mi SSE 11.5 mph - N/A   Clear
2:15 AM 32.0 °F 24.2 °F 30.2 °F 93% 30.02 in 10.0 mi SSE 9.2 mph - N/A   Clear
2:35 AM 32.0 °F 24.2 °F 30.2 °F 93% 30.02 in 10.0 mi South 9.2 mph - N/A   Clear
2:55 AM 30.2 °F 21.9 °F 30.2 °F 100% 30.02 in 10.0 mi SSE 9.2 mph - N/A   Clear
3:15 AM 30.2 °F 21.9 °F 30.2 °F 100% 30.01 in 10.0 mi SSE 9.2 mph - N/A   Clear
3:35 AM 32.0 °F 24.8 °F 30.2 °F 93% 30.01 in 10.0 mi ESE 8.1 mph - N/A   Clear
3:55 AM 32.0 °F 24.8 °F 30.2 °F 93% 30.00 in 10.0 mi ESE 8.1 mph - N/A   Clear
4:15 AM 32.0 °F 26.4 °F 30.2 °F 93% 30.01 in 10.0 mi SSE 5.8 mph - N/A   Clear
4:35 AM 32.0 °F 25.6 °F 30.2 °F 93% 30.00 in 10.0 mi SSE 6.9 mph - N/A   Clear
4:55 AM 32.0 °F 26.4 °F 30.2 °F 93% 29.99 in 10.0 mi SSE 5.8 mph - N/A   Clear
5:15 AM 32.0 °F 24.2 °F 32.0 °F 100% 29.99 in 10.0 mi SSE 9.2 mph - N/A   Clear
5:35 AM 35.6 °F 27.5 °F 32.0 °F 87% 29.98 in 10.0 mi South 11.5 mph - N/A   Clear
5:55 AM 35.6 °F 27.5 °F 32.0 °F 87% 29.98 in 10.0 mi South 11.5 mph - N/A   Clear
6:15 AM 35.6 °F 27.5 °F 33.8 °F 93% 29.98 in 10.0 mi South 11.5 mph - N/A   Clear
6:35 AM 35.6 °F 27.5 °F 32.0 °F 87% 29.97 in 10.0 mi South 11.5 mph - N/A   Clear
6:55 AM 37.4 °F 28.9 °F 33.8 °F 87% 29.98 in 10.0 mi South 13.8 mph - N/A   Clear
7:15 AM 37.4 °F 28.9 °F 33.8 °F 87% 29.97 in 10.0 mi South 13.8 mph 19.6 mph N/A   Clear
7:35 AM 37.4 °F 28.9 °F 33.8 °F 87% 29.97 in 10.0 mi South 13.8 mph - N/A   Clear
7:55 AM 39.2 °F 30.8 °F 33.8 °F 81% 29.98 in - South 15.0 mph - N/A   Clear
8:15 AM 41.0 °F 33.1 °F 35.6 °F 81% 29.98 in 10.0 mi South 15.0 mph - N/A   Clear
8:35 AM 42.8 °F 35.4 °F 35.6 °F 76% 29.98 in 10.0 mi South 15.0 mph 21.9 mph N/A   Clear
8:55 AM 44.6 °F 37.8 °F 35.6 °F 71% 29.98 in 10.0 mi South 15.0 mph - N/A   Clear
9:15 AM 46.4 °F 39.8 °F 35.6 °F 66% 29.97 in 10.0 mi South 16.1 mph - N/A   Clear
9:35 AM 48.2 °F - 35.6 °F 62% 29.97 in 10.0 mi South 16.1 mph - N/A   Clear
9:55 AM 48.2 °F - 37.4 °F 66% 29.97 in 10.0 mi South 12.7 mph - N/A   Clear
10:15 AM 50.0 °F - 35.6 °F 58% 29.96 in 10.0 mi South 18.4 mph - N/A   Clear
10:35 AM 53.6 °F - 35.6 °F 51% 29.96 in 10.0 mi South 19.6 mph - N/A   Clear
10:55 AM 55.4 °F - 35.6 °F 47% 29.96 in 10.0 mi South 17.3 mph 24.2 mph N/A   Clear
11:15 AM 57.2 °F - 35.6 °F 44% 29.95 in 10.0 mi South 16.1 mph 26.5 mph N/A   Clear
11:35 AM 59.0 °F - 35.6 °F 42% 29.94 in 10.0 mi South 20.7 mph - N/A   Clear
11:55 AM 59.0 °F - 35.6 °F 42% 29.93 in 10.0 mi South 17.3 mph 24.2 mph N/A   Clear
12:15 PM 60.8 °F - 35.6 °F 39% 29.91 in 10.0 mi South 19.6 mph - N/A   Clear
12:55 PM 62.6 °F - 35.6 °F 37% 29.90 in 10.0 mi South 20.7 mph - N/A   Clear
1:15 PM 62.6 °F - 35.6 °F 37% 29.89 in 10.0 mi South 18.4 mph - N/A   Clear
1:35 PM 62.6 °F - 35.6 °F 37% 29.88 in 10.0 mi South 18.4 mph 24.2 mph N/A   Clear
1:55 PM 62.6 °F - 35.6 °F 37% 29.88 in 10.0 mi SSW 16.1 mph 24.2 mph N/A   Clear
2:15 PM 62.6 °F - 35.6 °F 37% 29.88 in 10.0 mi SSW 18.4 mph - N/A   Clear
2:35 PM 62.6 °F - 35.6 °F 37% 29.88 in 10.0 mi South 16.1 mph - N/A   Clear
2:55 PM 64.4 °F - 37.4 °F 37% 29.87 in 10.0 mi South 16.1 mph - N/A   Clear
3:15 PM 62.6 °F - 37.4 °F 39% 29.88 in 10.0 mi South 13.8 mph 19.6 mph N/A   Clear
3:35 PM 64.4 °F - 37.4 °F 37% 29.88 in 10.0 mi South 12.7 mph - N/A   Clear
3:55 PM 62.6 °F - 37.4 °F 39% 29.88 in 10.0 mi South 10.4 mph - N/A   Clear
4:15 PM 62.6 °F - 37.4 °F 39% 29.88 in 10.0 mi South 9.2 mph - N/A   Clear
4:35 PM 59.0 °F - 39.2 °F 48% 29.89 in 10.0 mi South 6.9 mph - N/A   Clear
4:55 PM 57.2 °F - 39.2 °F 51% 29.88 in - South 4.6 mph - N/A   Clear
5:15 PM 55.4 °F - 39.2 °F 54% 29.89 in 10.0 mi Calm Calm - N/A   Clear
5:35 PM 53.6 °F - 37.4 °F 54% 29.90 in 10.0 mi Calm Calm - N/A   Clear
5:55 PM 53.6 °F - 37.4 °F 54% 29.91 in 10.0 mi South 4.6 mph - N/A   Clear
6:15 PM 46.4 °F 45.2 °F 37.4 °F 71% 29.91 in 10.0 mi SW 3.5 mph - N/A   Clear
6:35 PM 50.0 °F - 37.4 °F 62% 29.91 in 10.0 mi Calm Calm - N/A   Clear
6:55 PM 48.2 °F - 37.4 °F 66% 29.92 in 10.0 mi Calm Calm - N/A   Clear
7:15 PM 44.6 °F 42.2 °F 37.4 °F 76% 29.92 in 10.0 mi SSE 4.6 mph - N/A   Clear
7:35 PM 44.6 °F - 35.6 °F 71% 29.91 in 10.0 mi Calm Calm - N/A   Clear
7:55 PM 44.6 °F 42.2 °F 37.4 °F 76% 29.91 in 10.0 mi South 4.6 mph - N/A   Clear
8:15 PM 46.4 °F 44.3 °F 37.4 °F 71% 29.91 in 10.0 mi South 4.6 mph - N/A   Clear
8:35 PM 46.4 °F 44.3 °F 37.4 °F 71% 29.92 in 10.0 mi South 4.6 mph - N/A   Clear
8:55 PM 46.4 °F 44.3 °F 37.4 °F 71% 29.92 in 10.0 mi South 4.6 mph - N/A   Clear
9:15 PM 44.6 °F 42.2 °F 37.4 °F 76% 29.92 in 10.0 mi SSE 4.6 mph - N/A   Clear
9:35 PM 42.8 °F 40.1 °F 35.6 °F 76% 29.91 in 10.0 mi SSE 4.6 mph - N/A   Clear
9:55 PM 42.8 °F 40.1 °F 35.6 °F 76% 29.91 in 10.0 mi SSE 4.6 mph - N/A   Clear
10:15 PM 41.0 °F 39.0 °F 35.6 °F 81% 29.91 in 10.0 mi SSE 3.5 mph - N/A   Clear
10:35 PM 39.2 °F - 35.6 °F 87% 29.91 in 10.0 mi Calm Calm - N/A   Clear
10:55 PM 39.2 °F 34.2 °F 35.6 °F 87% 29.90 in 10.0 mi SE 6.9 mph - N/A   Clear
11:15 PM 39.2 °F 35.0 °F 33.8 °F 81% 29.90 in 10.0 mi SSE 5.8 mph - N/A   Clear
11:35 PM 39.2 °F - 35.6 °F 87% 29.90 in 10.0 mi Calm Calm - N/A   Clear
11:55 PM 39.2 °F - 35.6 °F 87% 29.90 in 10.0 mi Calm Calm - N/A   Clear